[Date Prev][Date Next][Thread Prev][Thread Next] - [Date Index][Thread Index][Author Index]
2 Line ISS Keps 6-6
- Subject: [sarex] 2 Line ISS Keps 6-6
- From: "Scott Avery WA6LIE" <wa6lie@xxxxxxx>
- Date: Mon, 6 Jun 2005 03:00:12 -0700
- Seal-Send-Time: Mon, 6 Jun 2005 03:00:12 -0700
ISS
1 25544U 98067A 05157.23652778 .00017350 00000-0 13128-3 0 6348
2 25544 051.6457 317.0231 0004810 209.3793 150.8310 15.72514926373961
----
Via the sarex mailing list at AMSAT.ORG courtesy of AMSAT-NA.
To unsubscribe, send "unsubscribe sarex" to Majordomo@amsat.org
AMSAT Home